Find Starlink 34599

NORAD ID: 64919 Int'l Des: 2025-157 Owner: SPXS Country: US Constellation: starlink operational
LEOCIRCULAR

Aktuelle Ansicht

3D-Globus wird geladen...

Über Starlink 34599

Beschreibung wird geladen...

Nächste Überflüge

Passes for default location (London). Set your location on the main map for personalized predictions.

Höhenverlauf

Loading altitude history...

Zweizeiliger Elementsatz

1 64919U 25157R 26149.86880188 .00025625 00000-0 87348-3 0 9991
2 64919 53.1591 328.5194 0000918 98.2923 261.8182 15.30231852 48558
Epoch: 29. Mai 2026 • Age: 12 hours

Aktueller Status

Höhe 493.5 km
Geschwindigkeit 7.62 km/s
Subsatellitenpunkt -51.49°S, 126.99°W
Startdatum 26. Juli 2025
Alter 0.8 years
Typ internet

Technische Details

Klassifizierung Payload
Masse 575.00 kg
Trockenmasse 530.00 kg
Gesamtmasse 575.00 kg
Länge 0.30 m
Durchmesser 4.10 m
Spannweite 29.00 m
Form Box + pan
Hersteller SPXS
Bus-Typ Starlink V2MO
Phasenstatus In Orbit
Besitzer/Staat SPXS/US

Most Searched